#datetime,building,power
2022-12-21T00:00:00,atd,17.27
2022-12-21T00:01:00,atd,19.39
2022-12-21T00:02:00,atd,32.54
2022-12-21T00:03:00,atd,22.09
2022-12-21T00:04:00,atd,24.10
2022-12-21T00:05:00,atd,26.69
2022-12-21T00:06:00,atd,27.45
2022-12-21T00:07:00,atd,24.83
2022-12-21T00:08:00,atd,36.76
2022-12-21T00:09:00,atd,34.90
2022-12-21T00:10:00,atd,36.01
2022-12-21T00:11:00,atd,20.56
2022-12-21T00:12:00,atd,21.01
2022-12-21T00:13:00,atd,21.18
2022-12-21T00:14:00,atd,21.07
2022-12-21T00:15:00,atd,23.54
2022-12-21T00:16:00,atd,22.76
2022-12-21T00:17:00,atd,20.06
2022-12-21T00:18:00,atd,21.61
2022-12-21T00:19:00,atd,20.98
2022-12-21T00:20:00,atd,21.09
2022-12-21T00:21:00,atd,23.23
2022-12-21T00:22:00,atd,21.88
2022-12-21T00:23:00,atd,18.93
2022-12-21T00:24:00,atd,18.15
2022-12-21T00:25:00,atd,16.77
2022-12-21T00:26:00,atd,15.54
2022-12-21T00:27:00,atd,18.02
2022-12-21T00:28:00,atd,15.98
2022-12-21T00:29:00,atd,19.15
2022-12-21T00:30:00,atd,16.61
2022-12-21T00:31:00,atd,21.53
2022-12-21T00:32:00,atd,22.23
2022-12-21T00:33:00,atd,23.68
2022-12-21T00:34:00,atd,29.81
2022-12-21T00:35:00,atd,31.37
2022-12-21T00:36:00,atd,28.29
2022-12-21T00:37:00,atd,26.39
2022-12-21T00:38:00,atd,17.41
2022-12-21T00:39:00,atd,17.16
2022-12-21T00:40:00,atd,18.54
2022-12-21T00:41:00,atd,26.87
2022-12-21T00:42:00,atd,20.10
2022-12-21T00:43:00,atd,27.69
2022-12-21T00:44:00,atd,18.23
2022-12-21T00:45:00,atd,18.09
2022-12-21T00:46:00,atd,24.81
2022-12-21T00:47:00,atd,19.85
2022-12-21T00:48:00,atd,20.21
2022-12-21T00:49:00,atd,19.79
2022-12-21T00:50:00,atd,22.99
2022-12-21T00:51:00,atd,19.36
2022-12-21T00:52:00,atd,20.01
2022-12-21T00:53:00,atd,20.93
2022-12-21T00:54:00,atd,17.47
2022-12-21T00:55:00,atd,18.84
2022-12-21T00:56:00,atd,18.60
2022-12-21T00:57:00,atd,17.71
2022-12-21T00:58:00,atd,22.45
2022-12-21T00:59:00,atd,22.25
2022-12-21T01:00:00,atd,20.39
2022-12-21T01:01:00,atd,23.68
2022-12-21T01:02:00,atd,19.64
2022-12-21T01:03:00,atd,20.32
2022-12-21T01:04:00,atd,17.86
2022-12-21T01:05:00,atd,18.47
2022-12-21T01:06:00,atd,21.20
2022-12-21T01:07:00,atd,20.97
2022-12-21T01:08:00,atd,22.40
2022-12-21T01:09:00,atd,24.05
2022-12-21T01:10:00,atd,23.30
2022-12-21T01:11:00,atd,23.47
2022-12-21T01:12:00,atd,19.39
2022-12-21T01:13:00,atd,17.95
2022-12-21T01:14:00,atd,18.51
2022-12-21T01:15:00,atd,18.45
2022-12-21T01:16:00,atd,18.67
2022-12-21T01:17:00,atd,17.02
2022-12-21T01:18:00,atd,17.97
2022-12-21T01:19:00,atd,23.34
2022-12-21T01:20:00,atd,24.76
2022-12-21T01:21:00,atd,23.00
2022-12-21T01:22:00,atd,25.35
2022-12-21T01:23:00,atd,21.57
2022-12-21T01:24:00,atd,24.55
2022-12-21T01:25:00,atd,24.69
2022-12-21T01:26:00,atd,25.11
2022-12-21T01:27:00,atd,25.64
2022-12-21T01:28:00,atd,26.10
2022-12-21T01:29:00,atd,17.83
2022-12-21T01:30:00,atd,20.45
2022-12-21T01:31:00,atd,22.13
2022-12-21T01:32:00,atd,23.15
2022-12-21T01:33:00,atd,16.95
2022-12-21T01:34:00,atd,21.26
2022-12-21T01:35:00,atd,21.56
2022-12-21T01:36:00,atd,21.66
2022-12-21T01:37:00,atd,18.83
2022-12-21T01:38:00,atd,17.79
2022-12-21T01:39:00,atd,17.92
2022-12-21T01:40:00,atd,17.89
2022-12-21T01:41:00,atd,16.66
2022-12-21T01:42:00,atd,23.00
2022-12-21T01:43:00,atd,20.11
2022-12-21T01:44:00,atd,23.28
2022-12-21T01:45:00,atd,20.57
2022-12-21T01:46:00,atd,20.03
2022-12-21T01:47:00,atd,20.89
2022-12-21T01:48:00,atd,19.69
2022-12-21T01:49:00,atd,17.15
2022-12-21T01:50:00,atd,19.16
2022-12-21T01:51:00,atd,18.17
2022-12-21T01:52:00,atd,20.31
2022-12-21T01:53:00,atd,17.87
2022-12-21T01:54:00,atd,18.60
2022-12-21T01:55:00,atd,17.61
2022-12-21T01:56:00,atd,20.98
2022-12-21T01:57:00,atd,18.78
2022-12-21T01:58:00,atd,21.07
2022-12-21T01:59:00,atd,17.51
2022-12-21T02:00:00,atd,20.94
2022-12-21T02:01:00,atd,19.55
2022-12-21T02:02:00,atd,24.09
2022-12-21T02:03:00,atd,28.32
2022-12-21T02:04:00,atd,25.73
2022-12-21T02:05:00,atd,18.22
2022-12-21T02:06:00,atd,30.38
2022-12-21T02:07:00,atd,18.48
2022-12-21T02:08:00,atd,16.42
2022-12-21T02:09:00,atd,20.66
2022-12-21T02:10:00,atd,17.45
2022-12-21T02:11:00,atd,21.50
2022-12-21T02:12:00,atd,20.81
2022-12-21T02:13:00,atd,18.26
2022-12-21T02:14:00,atd,18.89
2022-12-21T02:15:00,atd,20.57
2022-12-21T02:16:00,atd,19.36
2022-12-21T02:17:00,atd,19.94
2022-12-21T02:18:00,atd,25.47
2022-12-21T02:19:00,atd,26.32
2022-12-21T02:20:00,atd,26.77
2022-12-21T02:21:00,atd,29.06
2022-12-21T02:22:00,atd,20.26
2022-12-21T02:23:00,atd,20.69
2022-12-21T02:24:00,atd,19.97
2022-12-21T02:25:00,atd,20.28
2022-12-21T02:26:00,atd,21.17
2022-12-21T02:27:00,atd,31.21
2022-12-21T02:28:00,atd,20.05
2022-12-21T02:29:00,atd,18.20
2022-12-21T02:30:00,atd,18.06
2022-12-21T02:31:00,atd,17.83
2022-12-21T02:32:00,atd,20.87
2022-12-21T02:33:00,atd,32.45
2022-12-21T02:34:00,atd,17.79
2022-12-21T02:35:00,atd,18.60
2022-12-21T02:36:00,atd,21.41
2022-12-21T02:37:00,atd,22.32
2022-12-21T02:38:00,atd,20.79
2022-12-21T02:39:00,atd,19.60
2022-12-21T02:40:00,atd,21.34
2022-12-21T02:41:00,atd,19.72
2022-12-21T02:42:00,atd,19.61
2022-12-21T02:43:00,atd,18.86
2022-12-21T02:44:00,atd,21.73
2022-12-21T02:45:00,atd,19.58
2022-12-21T02:46:00,atd,20.52
2022-12-21T02:47:00,atd,18.65
2022-12-21T02:48:00,atd,19.06
2022-12-21T02:49:00,atd,16.14
2022-12-21T02:50:00,atd,18.09
2022-12-21T02:51:00,atd,16.02
2022-12-21T02:52:00,atd,18.90
2022-12-21T02:53:00,atd,15.63
2022-12-21T02:54:00,atd,18.08
2022-12-21T02:55:00,atd,18.65
2022-12-21T02:56:00,atd,22.33
2022-12-21T02:57:00,atd,20.37
2022-12-21T02:58:00,atd,21.96
2022-12-21T02:59:00,atd,19.16
2022-12-21T03:00:00,atd,20.62
2022-12-21T03:01:00,atd,16.23
2022-12-21T03:02:00,atd,19.93
2022-12-21T03:03:00,atd,17.45
2022-12-21T03:04:00,atd,16.59
2022-12-21T03:05:00,atd,19.34
2022-12-21T03:06:00,atd,17.14
2022-12-21T03:07:00,atd,31.45
2022-12-21T03:08:00,atd,17.17
2022-12-21T03:09:00,atd,17.85
2022-12-21T03:10:00,atd,16.18
2022-12-21T03:11:00,atd,17.35
2022-12-21T03:12:00,atd,16.73
2022-12-21T03:13:00,atd,18.32
2022-12-21T03:14:00,atd,18.91
2022-12-21T03:15:00,atd,22.57
2022-12-21T03:16:00,atd,24.69
2022-12-21T03:17:00,atd,21.07
2022-12-21T03:18:00,atd,23.71
2022-12-21T03:19:00,atd,18.26
2022-12-21T03:20:00,atd,20.71
2022-12-21T03:21:00,atd,18.76
2022-12-21T03:22:00,atd,20.67
2022-12-21T03:23:00,atd,19.58
2022-12-21T03:24:00,atd,20.27
2022-12-21T03:25:00,atd,18.71
2022-12-21T03:26:00,atd,20.73
2022-12-21T03:27:00,atd,19.44
2022-12-21T03:28:00,atd,36.01
2022-12-21T03:29:00,atd,29.68
2022-12-21T03:30:00,atd,26.82
2022-12-21T03:31:00,atd,30.73
2022-12-21T03:32:00,atd,28.69
2022-12-21T03:33:00,atd,27.19
2022-12-21T03:34:00,atd,25.57
2022-12-21T03:35:00,atd,25.29
2022-12-21T03:36:00,atd,21.10
2022-12-21T03:37:00,atd,23.61
2022-12-21T03:38:00,atd,18.01
2022-12-21T03:39:00,atd,19.83
2022-12-21T03:40:00,atd,17.67
2022-12-21T03:41:00,atd,18.50
2022-12-21T03:42:00,atd,17.69
2022-12-21T03:43:00,atd,19.38
2022-12-21T03:44:00,atd,27.06
2022-12-21T03:45:00,atd,26.01
2022-12-21T03:46:00,atd,24.67
2022-12-21T03:47:00,atd,24.76
2022-12-21T03:48:00,atd,28.05
2022-12-21T03:49:00,atd,22.90
2022-12-21T03:50:00,atd,35.05
2022-12-21T03:51:00,atd,32.82
2022-12-21T03:52:00,atd,32.57
2022-12-21T03:53:00,atd,34.18
2022-12-21T03:54:00,atd,33.40
2022-12-21T03:55:00,atd,17.73
2022-12-21T03:56:00,atd,19.40
2022-12-21T03:57:00,atd,15.33
2022-12-21T03:58:00,atd,18.18
2022-12-21T03:59:00,atd,15.12
2022-12-21T04:00:00,atd,17.48
2022-12-21T04:01:00,atd,17.43
2022-12-21T04:02:00,atd,18.73
2022-12-21T04:03:00,atd,16.77
2022-12-21T04:04:00,atd,17.44
2022-12-21T04:05:00,atd,15.82
2022-12-21T04:06:00,atd,18.21
2022-12-21T04:07:00,atd,21.84
2022-12-21T04:08:00,atd,18.85
2022-12-21T04:09:00,atd,33.17
2022-12-21T04:10:00,atd,17.07
2022-12-21T04:11:00,atd,22.12
2022-12-21T04:12:00,atd,18.23
2022-12-21T04:13:00,atd,17.33
2022-12-21T04:14:00,atd,17.01
2022-12-21T04:15:00,atd,20.66
2022-12-21T04:16:00,atd,18.13
2022-12-21T04:17:00,atd,19.97
2022-12-21T04:18:00,atd,20.91
2022-12-21T04:19:00,atd,18.96
2022-12-21T04:20:00,atd,21.55
2022-12-21T04:21:00,atd,17.88
2022-12-21T04:22:00,atd,22.13
2022-12-21T04:23:00,atd,17.66
2022-12-21T04:24:00,atd,20.80
2022-12-21T04:25:00,atd,18.05
2022-12-21T04:26:00,atd,27.70
2022-12-21T04:27:00,atd,25.68
2022-12-21T04:28:00,atd,23.14
2022-12-21T04:29:00,atd,32.31
2022-12-21T04:30:00,atd,22.85
2022-12-21T04:31:00,atd,17.24
2022-12-21T04:32:00,atd,18.62
2022-12-21T04:33:00,atd,17.48
2022-12-21T04:34:00,atd,18.37
2022-12-21T04:35:00,atd,15.85
2022-12-21T04:36:00,atd,19.89
2022-12-21T04:37:00,atd,18.27
2022-12-21T04:38:00,atd,18.89
2022-12-21T04:39:00,atd,14.90
2022-12-21T04:40:00,atd,17.65
2022-12-21T04:41:00,atd,18.43
2022-12-21T04:42:00,atd,24.11
2022-12-21T04:43:00,atd,21.32
2022-12-21T04:44:00,atd,23.68
2022-12-21T04:45:00,atd,24.84
2022-12-21T04:46:00,atd,19.61
2022-12-21T04:47:00,atd,21.53
2022-12-21T04:48:00,atd,31.59
2022-12-21T04:49:00,atd,17.29
2022-12-21T04:50:00,atd,18.39
2022-12-21T04:51:00,atd,24.23
2022-12-21T04:52:00,atd,17.74
2022-12-21T04:53:00,atd,19.52
2022-12-21T04:54:00,atd,17.66
2022-12-21T04:55:00,atd,21.14
2022-12-21T04:56:00,atd,16.60
2022-12-21T04:57:00,atd,17.76
2022-12-21T04:58:00,atd,15.79
2022-12-21T04:59:00,atd,19.45
2022-12-21T05:00:00,atd,16.58
2022-12-21T05:01:00,atd,18.83
2022-12-21T05:02:00,atd,18.14
2022-12-21T05:03:00,atd,21.96
2022-12-21T05:04:00,atd,24.07
2022-12-21T05:05:00,atd,22.29
2022-12-21T05:06:00,atd,18.86
2022-12-21T05:07:00,atd,22.64
2022-12-21T05:08:00,atd,18.06
2022-12-21T05:09:00,atd,19.36
2022-12-21T05:10:00,atd,18.86
2022-12-21T05:11:00,atd,21.69
2022-12-21T05:12:00,atd,18.34
2022-12-21T05:13:00,atd,22.53
2022-12-21T05:14:00,atd,20.03
2022-12-21T05:15:00,atd,22.34
2022-12-21T05:16:00,atd,20.21
2022-12-21T05:17:00,atd,22.43
2022-12-21T05:18:00,atd,21.73
2022-12-21T05:19:00,atd,20.38
2022-12-21T05:20:00,atd,19.94
2022-12-21T05:21:00,atd,22.27
2022-12-21T05:22:00,atd,20.77
2022-12-21T05:23:00,atd,21.49
2022-12-21T05:24:00,atd,18.99
2022-12-21T05:25:00,atd,20.21
2022-12-21T05:26:00,atd,18.23
2022-12-21T05:27:00,atd,18.61
2022-12-21T05:28:00,atd,18.13
2022-12-21T05:29:00,atd,21.36
2022-12-21T05:30:00,atd,20.04
2022-12-21T05:31:00,atd,26.70
2022-12-21T05:32:00,atd,24.72
2022-12-21T05:33:00,atd,18.05
2022-12-21T05:34:00,atd,17.43
2022-12-21T05:35:00,atd,16.98
2022-12-21T05:36:00,atd,17.91
2022-12-21T05:37:00,atd,16.67
2022-12-21T05:38:00,atd,17.93
2022-12-21T05:39:00,atd,20.52
2022-12-21T05:40:00,atd,23.23
2022-12-21T05:41:00,atd,20.13
2022-12-21T05:42:00,atd,20.39
2022-12-21T05:43:00,atd,18.17
2022-12-21T05:44:00,atd,21.19
2022-12-21T05:45:00,atd,17.44
2022-12-21T05:46:00,atd,22.10
2022-12-21T05:47:00,atd,28.80
2022-12-21T05:48:00,atd,17.44
2022-12-21T05:49:00,atd,18.46
2022-12-21T05:50:00,atd,18.43
2022-12-21T05:51:00,atd,17.41
2022-12-21T05:52:00,atd,19.53
2022-12-21T05:53:00,atd,23.42
2022-12-21T05:54:00,atd,23.67
2022-12-21T05:55:00,atd,20.85
2022-12-21T05:56:00,atd,18.52
2022-12-21T05:57:00,atd,20.25
2022-12-21T05:58:00,atd,20.10
2022-12-21T05:59:00,atd,20.61
2022-12-21T06:00:00,atd,21.51
2022-12-21T06:01:00,atd,22.27
2022-12-21T06:02:00,atd,17.36
2022-12-21T06:03:00,atd,20.38
2022-12-21T06:04:00,atd,18.72
2022-12-21T06:05:00,atd,20.16
2022-12-21T06:06:00,atd,18.35
2022-12-21T06:07:00,atd,19.71
2022-12-21T06:08:00,atd,17.33
2022-12-21T06:09:00,atd,16.87
2022-12-21T06:10:00,atd,19.43
2022-12-21T06:11:00,atd,16.58
2022-12-21T06:12:00,atd,18.65
2022-12-21T06:13:00,atd,17.64
2022-12-21T06:14:00,atd,20.91
2022-12-21T06:15:00,atd,20.20
2022-12-21T06:16:00,atd,20.89
2022-12-21T06:17:00,atd,19.78
2022-12-21T06:18:00,atd,22.86
2022-12-21T06:19:00,atd,20.26
2022-12-21T06:20:00,atd,20.01
2022-12-21T06:21:00,atd,16.04
2022-12-21T06:22:00,atd,19.58
2022-12-21T06:23:00,atd,17.64
2022-12-21T06:24:00,atd,19.71
2022-12-21T06:25:00,atd,21.47
2022-12-21T06:26:00,atd,30.63
2022-12-21T06:27:00,atd,17.27
2022-12-21T06:28:00,atd,18.57
2022-12-21T06:29:00,atd,20.80
2022-12-21T06:30:00,atd,19.68
2022-12-21T06:31:00,atd,19.50
2022-12-21T06:32:00,atd,19.07
2022-12-21T06:33:00,atd,22.10
2022-12-21T06:34:00,atd,20.42
2022-12-21T06:35:00,atd,21.47
2022-12-21T06:36:00,atd,20.79
2022-12-21T06:37:00,atd,22.24
2022-12-21T06:38:00,atd,19.44
2022-12-21T06:39:00,atd,17.36
2022-12-21T06:40:00,atd,17.37
2022-12-21T06:41:00,atd,18.17
2022-12-21T06:42:00,atd,21.84
2022-12-21T06:43:00,atd,23.94
2022-12-21T06:44:00,atd,22.28
2022-12-21T06:45:00,atd,30.53
2022-12-21T06:46:00,atd,17.13
2022-12-21T06:47:00,atd,15.24
2022-12-21T06:48:00,atd,19.11
2022-12-21T06:49:00,atd,16.34
2022-12-21T06:50:00,atd,21.91
2022-12-21T06:51:00,atd,19.88
2022-12-21T06:52:00,atd,20.93
2022-12-21T06:53:00,atd,27.41
2022-12-21T06:54:00,atd,30.73
2022-12-21T06:55:00,atd,28.48
2022-12-21T06:56:00,atd,29.87
2022-12-21T06:57:00,atd,19.38
2022-12-21T06:58:00,atd,17.53
2022-12-21T06:59:00,atd,15.16
2022-12-21T07:00:00,atd,17.48
2022-12-21T07:01:00,atd,15.65
2022-12-21T07:02:00,atd,18.90
2022-12-21T07:03:00,atd,16.48
2022-12-21T07:04:00,atd,18.37
2022-12-21T07:05:00,atd,29.23
2022-12-21T07:06:00,atd,20.70
2022-12-21T07:07:00,atd,18.18
2022-12-21T07:08:00,atd,23.75
2022-12-21T07:09:00,atd,22.00
2022-12-21T07:10:00,atd,23.42
2022-12-21T07:11:00,atd,24.26
2022-12-21T07:12:00,atd,21.57
2022-12-21T07:13:00,atd,25.25
2022-12-21T07:14:00,atd,28.10
2022-12-21T07:15:00,atd,32.70
2022-12-21T07:16:00,atd,31.69
2022-12-21T07:17:00,atd,31.11
2022-12-21T07:18:00,atd,28.79
2022-12-21T07:19:00,atd,26.70
2022-12-21T07:20:00,atd,39.99
2022-12-21T07:21:00,atd,38.69
2022-12-21T07:22:00,atd,39.53
2022-12-21T07:23:00,atd,40.22
2022-12-21T07:24:00,atd,30.04
2022-12-21T07:25:00,atd,40.80
2022-12-21T07:26:00,atd,29.21
2022-12-21T07:27:00,atd,30.51
2022-12-21T07:28:00,atd,29.14
2022-12-21T07:29:00,atd,31.95
2022-12-21T07:30:00,atd,29.80
2022-12-21T07:31:00,atd,35.77
2022-12-21T07:32:00,atd,36.41
2022-12-21T07:33:00,atd,33.55
2022-12-21T07:34:00,atd,33.77
2022-12-21T07:35:00,atd,33.63
2022-12-21T07:36:00,atd,34.36
2022-12-21T07:37:00,atd,33.40
2022-12-21T07:38:00,atd,34.44
2022-12-21T07:39:00,atd,39.12
2022-12-21T07:40:00,atd,36.88
2022-12-21T07:41:00,atd,34.72
2022-12-21T07:42:00,atd,32.78
2022-12-21T07:43:00,atd,44.26
2022-12-21T07:44:00,atd,35.41
2022-12-21T07:45:00,atd,32.62
2022-12-21T07:46:00,atd,34.10
2022-12-21T07:47:00,atd,36.09
2022-12-21T07:48:00,atd,38.10
2022-12-21T07:49:00,atd,37.70
2022-12-21T07:50:00,atd,38.58
2022-12-21T07:51:00,atd,42.02
2022-12-21T07:52:00,atd,39.39
2022-12-21T07:53:00,atd,34.42
2022-12-21T07:54:00,atd,39.40
2022-12-21T07:55:00,atd,37.47
2022-12-21T07:56:00,atd,40.26
2022-12-21T07:57:00,atd,37.80
2022-12-21T07:58:00,atd,34.37
2022-12-21T07:59:00,atd,34.69
2022-12-21T08:00:00,atd,34.35
2022-12-21T08:01:00,atd,33.44
2022-12-21T08:02:00,atd,34.02
2022-12-21T08:03:00,atd,33.54
2022-12-21T08:04:00,atd,36.55
2022-12-21T08:05:00,atd,36.98
2022-12-21T08:06:00,atd,40.89
2022-12-21T08:07:00,atd,40.21
2022-12-21T08:08:00,atd,40.38
2022-12-21T08:09:00,atd,39.50
2022-12-21T08:10:00,atd,36.50
2022-12-21T08:11:00,atd,39.86
2022-12-21T08:12:00,atd,37.75
2022-12-21T08:13:00,atd,36.25
2022-12-21T08:14:00,atd,34.66
2022-12-21T08:15:00,atd,33.33
2022-12-21T08:16:00,atd,36.15
2022-12-21T08:17:00,atd,39.43
2022-12-21T08:18:00,atd,47.57
2022-12-21T08:19:00,atd,34.63
2022-12-21T08:20:00,atd,32.68
2022-12-21T08:21:00,atd,29.88
2022-12-21T08:22:00,atd,28.48
2022-12-21T08:23:00,atd,31.99
2022-12-21T08:24:00,atd,32.09
2022-12-21T08:25:00,atd,31.07
2022-12-21T08:26:00,atd,31.88
2022-12-21T08:27:00,atd,34.03
2022-12-21T08:28:00,atd,31.97
2022-12-21T08:29:00,atd,30.04
2022-12-21T08:30:00,atd,29.81
2022-12-21T08:31:00,atd,28.77
2022-12-21T08:32:00,atd,30.64
2022-12-21T08:33:00,atd,28.32
2022-12-21T08:34:00,atd,28.76
2022-12-21T08:35:00,atd,28.23
2022-12-21T08:36:00,atd,38.24
2022-12-21T08:37:00,atd,28.17
2022-12-21T08:38:00,atd,25.66
2022-12-21T08:39:00,atd,25.54
2022-12-21T08:40:00,atd,29.06
2022-12-21T08:41:00,atd,27.41
2022-12-21T08:42:00,atd,29.58
2022-12-21T08:43:00,atd,28.77
2022-12-21T08:44:00,atd,31.52
2022-12-21T08:45:00,atd,29.63
2022-12-21T08:46:00,atd,31.76
2022-12-21T08:47:00,atd,28.67
2022-12-21T08:48:00,atd,27.17
2022-12-21T08:49:00,atd,27.04
2022-12-21T08:50:00,atd,29.02
2022-12-21T08:51:00,atd,27.95
2022-12-21T08:52:00,atd,26.89
2022-12-21T08:53:00,atd,37.98
2022-12-21T08:54:00,atd,25.98
2022-12-21T08:55:00,atd,27.18
2022-12-21T08:56:00,atd,33.24
2022-12-21T08:57:00,atd,31.46
2022-12-21T08:58:00,atd,26.68
2022-12-21T08:59:00,atd,25.29
2022-12-21T09:00:00,atd,28.09
2022-12-21T09:01:00,atd,27.52
2022-12-21T09:02:00,atd,31.10
2022-12-21T09:03:00,atd,30.17
2022-12-21T09:04:00,atd,28.56
2022-12-21T09:05:00,atd,26.89
2022-12-21T09:06:00,atd,24.93
2022-12-21T09:07:00,atd,27.96
2022-12-21T09:08:00,atd,25.01
2022-12-21T09:09:00,atd,26.80
2022-12-21T09:10:00,atd,26.96
2022-12-21T09:11:00,atd,25.10
2022-12-21T09:12:00,atd,26.24
2022-12-21T09:13:00,atd,23.96
2022-12-21T09:14:00,atd,27.73
2022-12-21T09:15:00,atd,27.95
2022-12-21T09:16:00,atd,28.08
2022-12-21T09:17:00,atd,26.53
2022-12-21T09:18:00,atd,29.71
2022-12-21T09:19:00,atd,32.37
2022-12-21T09:20:00,atd,30.88
2022-12-21T09:21:00,atd,31.73
2022-12-21T09:22:00,atd,31.30
2022-12-21T09:23:00,atd,25.80
2022-12-21T09:24:00,atd,25.89
2022-12-21T09:25:00,atd,28.81
2022-12-21T09:26:00,atd,30.04
2022-12-21T09:27:00,atd,29.14
2022-12-21T09:28:00,atd,41.08
2022-12-21T09:29:00,atd,27.42
2022-12-21T09:30:00,atd,28.38
2022-12-21T09:31:00,atd,30.01
2022-12-21T09:32:00,atd,31.51
2022-12-21T09:33:00,atd,28.73
2022-12-21T09:34:00,atd,29.99
2022-12-21T09:35:00,atd,25.74
2022-12-21T09:36:00,atd,30.94
2022-12-21T09:37:00,atd,29.32
2022-12-21T09:38:00,atd,29.06
2022-12-21T09:39:00,atd,30.55
2022-12-21T09:40:00,atd,30.12
2022-12-21T09:41:00,atd,25.82
2022-12-21T09:42:00,atd,30.77
2022-12-21T09:43:00,atd,26.16
2022-12-21T09:44:00,atd,25.24
2022-12-21T09:45:00,atd,25.95
2022-12-21T09:46:00,atd,36.72
2022-12-21T09:47:00,atd,28.19
2022-12-21T09:48:00,atd,22.90
2022-12-21T09:49:00,atd,27.31
2022-12-21T09:50:00,atd,28.13
2022-12-21T09:51:00,atd,29.33
2022-12-21T09:52:00,atd,39.19
2022-12-21T09:53:00,atd,37.92
2022-12-21T09:54:00,atd,41.45
2022-12-21T09:55:00,atd,38.69
2022-12-21T09:56:00,atd,27.64
2022-12-21T09:57:00,atd,28.29
2022-12-21T09:58:00,atd,26.69
2022-12-21T09:59:00,atd,28.38
2022-12-21T10:00:00,atd,24.04
2022-12-21T10:01:00,atd,22.97
2022-12-21T10:02:00,atd,24.15
2022-12-21T10:03:00,atd,24.84
2022-12-21T10:04:00,atd,31.07
2022-12-21T10:05:00,atd,24.81
2022-12-21T10:06:00,atd,25.90
2022-12-21T10:07:00,atd,30.25
2022-12-21T10:08:00,atd,27.75
2022-12-21T10:09:00,atd,27.28
2022-12-21T10:10:00,atd,24.84
2022-12-21T10:11:00,atd,27.00
2022-12-21T10:12:00,atd,28.93
2022-12-21T10:13:00,atd,29.49
2022-12-21T10:14:00,atd,30.15
2022-12-21T10:15:00,atd,31.09
2022-12-21T10:16:00,atd,27.36
2022-12-21T10:17:00,atd,27.43
2022-12-21T10:18:00,atd,24.84
2022-12-21T10:19:00,atd,25.88
2022-12-21T10:20:00,atd,28.95
2022-12-21T10:21:00,atd,36.61
2022-12-21T10:22:00,atd,27.82
2022-12-21T10:23:00,atd,26.18
2022-12-21T10:24:00,atd,26.35
2022-12-21T10:25:00,atd,29.64
2022-12-21T10:26:00,atd,25.50
2022-12-21T10:27:00,atd,27.75
2022-12-21T10:28:00,atd,24.93
2022-12-21T10:29:00,atd,29.09
2022-12-21T10:30:00,atd,27.27
2022-12-21T10:31:00,atd,32.59
2022-12-21T10:32:00,atd,33.43
2022-12-21T10:33:00,atd,29.54
2022-12-21T10:34:00,atd,29.49
2022-12-21T10:35:00,atd,27.40
2022-12-21T10:36:00,atd,26.24
2022-12-21T10:37:00,atd,26.83
2022-12-21T10:38:00,atd,25.70
2022-12-21T10:39:00,atd,25.12
2022-12-21T10:40:00,atd,22.83
2022-12-21T10:41:00,atd,24.12
2022-12-21T10:42:00,atd,22.80
2022-12-21T10:43:00,atd,25.56
2022-12-21T10:44:00,atd,26.59
2022-12-21T10:45:00,atd,25.39
2022-12-21T10:46:00,atd,22.75
2022-12-21T10:47:00,atd,24.06
2022-12-21T10:48:00,atd,25.66
2022-12-21T10:49:00,atd,27.13
2022-12-21T10:50:00,atd,44.01
2022-12-21T10:51:00,atd,43.07
2022-12-21T10:52:00,atd,40.54
2022-12-21T10:53:00,atd,43.71
2022-12-21T10:54:00,atd,41.58
2022-12-21T10:55:00,atd,30.98
2022-12-21T10:56:00,atd,29.56
2022-12-21T10:57:00,atd,28.08
2022-12-21T10:58:00,atd,31.06
2022-12-21T10:59:00,atd,28.83
2022-12-21T11:00:00,atd,26.51
2022-12-21T11:01:00,atd,26.49
2022-12-21T11:02:00,atd,26.08
2022-12-21T11:03:00,atd,27.02
2022-12-21T11:04:00,atd,26.08
2022-12-21T11:05:00,atd,26.01
2022-12-21T11:06:00,atd,25.74
2022-12-21T11:07:00,atd,28.04
2022-12-21T11:08:00,atd,27.49
2022-12-21T11:09:00,atd,33.07
2022-12-21T11:10:00,atd,31.79
2022-12-21T11:11:00,atd,26.04
2022-12-21T11:12:00,atd,26.59
2022-12-21T11:13:00,atd,35.34
2022-12-21T11:14:00,atd,26.09
2022-12-21T11:15:00,atd,26.07
2022-12-21T11:16:00,atd,26.53
2022-12-21T11:17:00,atd,24.94
2022-12-21T11:18:00,atd,24.85
2022-12-21T11:19:00,atd,27.38
2022-12-21T11:20:00,atd,25.45
2022-12-21T11:21:00,atd,24.49
2022-12-21T11:22:00,atd,27.60
2022-12-21T11:23:00,atd,26.92
2022-12-21T11:24:00,atd,26.65
2022-12-21T11:25:00,atd,27.25
2022-12-21T11:26:00,atd,30.12
2022-12-21T11:27:00,atd,30.60
2022-12-21T11:28:00,atd,28.76
2022-12-21T11:29:00,atd,29.11
2022-12-21T11:30:00,atd,25.57
2022-12-21T11:31:00,atd,25.25
2022-12-21T11:32:00,atd,26.69
2022-12-21T11:33:00,atd,27.84
2022-12-21T11:34:00,atd,28.10
2022-12-21T11:35:00,atd,27.59
2022-12-21T11:36:00,atd,25.57
2022-12-21T11:37:00,atd,25.84
2022-12-21T11:38:00,atd,24.57
2022-12-21T11:39:00,atd,25.41
2022-12-21T11:40:00,atd,25.80
2022-12-21T11:41:00,atd,22.20
2022-12-21T11:42:00,atd,21.61
2022-12-21T11:43:00,atd,23.05
2022-12-21T11:44:00,atd,24.41
2022-12-21T11:45:00,atd,25.76
2022-12-21T11:46:00,atd,26.18
2022-12-21T11:47:00,atd,23.28
2022-12-21T11:48:00,atd,36.95
2022-12-21T11:49:00,atd,24.32
2022-12-21T11:50:00,atd,24.99
2022-12-21T11:51:00,atd,26.60
2022-12-21T11:52:00,atd,26.03
2022-12-21T11:53:00,atd,23.20
2022-12-21T11:54:00,atd,25.95
2022-12-21T11:55:00,atd,26.23
2022-12-21T11:56:00,atd,26.06
2022-12-21T11:57:00,atd,24.33
2022-12-21T11:58:00,atd,26.54
2022-12-21T11:59:00,atd,23.84
2022-12-21T12:00:00,atd,23.59
2022-12-21T12:01:00,atd,25.58
2022-12-21T12:02:00,atd,26.41
2022-12-21T12:03:00,atd,25.72
2022-12-21T12:04:00,atd,23.98
2022-12-21T12:05:00,atd,26.67
2022-12-21T12:06:00,atd,28.27
2022-12-21T12:07:00,atd,29.38
2022-12-21T12:08:00,atd,28.85
2022-12-21T12:09:00,atd,27.56
2022-12-21T12:10:00,atd,26.91
2022-12-21T12:11:00,atd,27.83
2022-12-21T12:12:00,atd,27.39
2022-12-21T12:13:00,atd,27.10
2022-12-21T12:14:00,atd,27.52
2022-12-21T12:15:00,atd,29.10
2022-12-21T12:16:00,atd,27.62
2022-12-21T12:17:00,atd,28.66
2022-12-21T12:18:00,atd,30.32
2022-12-21T12:19:00,atd,30.40
2022-12-21T12:20:00,atd,27.39
2022-12-21T12:21:00,atd,29.19
2022-12-21T12:22:00,atd,30.14
2022-12-21T12:23:00,atd,27.83
2022-12-21T12:24:00,atd,29.90
2022-12-21T12:25:00,atd,30.08
2022-12-21T12:26:00,atd,23.97
2022-12-21T12:27:00,atd,27.44
2022-12-21T12:28:00,atd,22.96
2022-12-21T12:29:00,atd,27.37
2022-12-21T12:30:00,atd,27.74
2022-12-21T12:31:00,atd,25.75
2022-12-21T12:32:00,atd,25.32
2022-12-21T12:33:00,atd,26.77
2022-12-21T12:34:00,atd,24.18
2022-12-21T12:35:00,atd,26.56
2022-12-21T12:36:00,atd,27.81
2022-12-21T12:37:00,atd,23.01
2022-12-21T12:38:00,atd,23.34
2022-12-21T12:39:00,atd,37.41
2022-12-21T12:40:00,atd,21.79
2022-12-21T12:41:00,atd,23.20
2022-12-21T12:42:00,atd,24.18
2022-12-21T12:43:00,atd,26.86
2022-12-21T12:44:00,atd,28.74
2022-12-21T12:45:00,atd,26.71
2022-12-21T12:46:00,atd,32.10
2022-12-21T12:47:00,atd,32.16
2022-12-21T12:48:00,atd,29.80
2022-12-21T12:49:00,atd,31.98
2022-12-21T12:50:00,atd,22.27
2022-12-21T12:51:00,atd,21.68
2022-12-21T12:52:00,atd,26.23
2022-12-21T12:53:00,atd,23.92
2022-12-21T12:54:00,atd,23.48
2022-12-21T12:55:00,atd,24.98
2022-12-21T12:56:00,atd,27.18
2022-12-21T12:57:00,atd,24.16
2022-12-21T12:58:00,atd,23.83
2022-12-21T12:59:00,atd,23.19
2022-12-21T13:00:00,atd,24.05
2022-12-21T13:01:00,atd,22.12
2022-12-21T13:02:00,atd,24.64
2022-12-21T13:03:00,atd,22.01
2022-12-21T13:04:00,atd,25.26
2022-12-21T13:05:00,atd,27.49
2022-12-21T13:06:00,atd,23.74
2022-12-21T13:07:00,atd,26.13
2022-12-21T13:08:00,atd,23.06
2022-12-21T13:09:00,atd,25.95
2022-12-21T13:10:00,atd,28.82
2022-12-21T13:11:00,atd,27.09
2022-12-21T13:12:00,atd,26.94
2022-12-21T13:13:00,atd,27.40
2022-12-21T13:14:00,atd,27.51
2022-12-21T13:15:00,atd,24.85
2022-12-21T13:16:00,atd,20.85
2022-12-21T13:17:00,atd,20.61
2022-12-21T13:18:00,atd,22.05